Regional Weather Roundup
Issued by NWS

Home | Current Version | Previous Version | Graphics & Text | Print | Product List | Glossary On
Versions: 1 2 3 4 5 6 7 8 9 10 11 12 13 14 15 16 17 18 19 20 21 22 23 24 25 26 27 28 29 30 31 32 33 34 35 36 37 38 39 40 41 42 43 44 45 46 47 48 49 50
000
ASUS45 KABQ 230001
RWRNM
NEW MEXICO REGIONAL WEATHER ROUNDUP
NATIONAL WEATHER SERVICE ALBUQUERQUE NM
600 PM MDT FRI MAY 22 2015

NOTE: "FAIR" MEANS FEW OR NO CLOUDS BELOW 12,000 FEET AGL WITH NO
       SIGNIFICANT WEATHER OR OBSTRUCTIONS TO VISION.

      THIS PRODUCT IS RELEASED AS TWO VERSIONS.  ONE VERSION NEAR
      THE TOP OF THE HOUR CONTAINING PRELIMINARY DATA FROM ALBUQUERQUE
      AND OTHER STATIONS.  A FINAL VERSION WITH ADDITIONAL DATA IS
      ISSUED ABOUT 10 MINUTES AFTER THE HOUR.

NMZ501-503-504-510>518-230100-
NORTHWEST PLATEAU/NORTHCENTRAL MOUNTAINS

CITY           SKY/WX    TMP DP  RH WIND       PRES   REMARKS
FARMINGTON     MOSUNNY   69  24  18 S18G26    29.85F
6HR MIN TEMP:  64; 6HR MAX TEMP:  71; 6HR PCP: TRACE;

SANTA FE       CLOUDY    66  30  26 S17       29.99F
6HR MIN TEMP:  56; 6HR MAX TEMP:  70;

TAOS           SUNNY     63  37  39 SW13      30.04S

$$
NMZ402-403-502-505>509-230100-
WESTCENTRAL MOUNTAINS/SOUTHWEST MOUNTAINS

CITY           SKY/WX    TMP DP  RH WIND       PRES   REMARKS
GALLUP         CLOUDY    65  18  16 W14       29.94R
6HR MIN TEMP:  63; 6HR MAX TEMP:  70;

GRANTS         CLOUDY    69  16  13 SW17G23   29.95S
SILVER CITY    SUNNY     75  16  10 SW18G37   29.98S

$$
NMZ407-409-411-412-230100-
SOUTHERN DESERTS

CITY           SKY/WX    TMP DP  RH WIND       PRES   REMARKS
LORDSBURG      FAIR      81  18   9 S22G32    29.89F
DEMING         SUNNY     84  10   6 SW16G33   29.88F
6HR MIN TEMP:  74; 6HR MAX TEMP:  86;

HOLLOMAN AFB   MOSUNNY   84  28  13 S18G24    29.86F
ALAMOGORDO     MOSUNNY   84  28  13 S22       29.89F
T OR C         SUNNY     80  14   8 S28G37    29.88F
6HR MIN TEMP:  70; 6HR MAX TEMP:  81;


$$
NMZ519>523-230100-
CENTRAL VALLEYS/CENTRAL HIGHLANDS

CITY           SKY/WX    TMP DP  RH WIND       PRES   REMARKS
ALBUQUERQUE    MOSUNNY   75  34  22 S29G40    29.92F
6HR MIN TEMP:  61; 6HR MAX TEMP:  75;

DOUBLE EAGLE   MOSUNNY   72  34  25 SE24G35   29.94F
CLINES CORNERS SUNNY     65  32  29 S25G31    30.05S
6HR MIN TEMP:  56; 6HR MAX TEMP:  66;

BELEN          FAIR      76  30  18 SE26G32   29.90F
6HR MIN TEMP:  64; 6HR MAX TEMP:  76;

SOCORRO        NOT AVBL

$$
NMZ524>526-539-540-230100-
SOUTHCENTRAL MOUNTAINS

CITY           SKY/WX    TMP DP  RH WIND       PRES   REMARKS
RUIDOSO        NOT AVBL

$$
NMZ527>531-230100-
NORTHEAST HIGHLANDS/NORTHEAST PLAINS

CITY           SKY/WX    TMP DP  RH WIND       PRES   REMARKS
LAS VEGAS      MOSUNNY   61  48  62 S24G33    30.05S
6HR MIN TEMP:  57; 6HR MAX TEMP:  65;

RATON          PTSUNNY   64  36  35 S22       29.98S
6HR MIN TEMP:  57; 6HR MAX TEMP:  68; 6HR PCP:  0.01;

CLAYTON        MOSUNNY   67  49  52 S25G32    29.99F
6HR MIN TEMP:  60; 6HR MAX TEMP:  68;


$$
NMZ532>537-230100-
EASTCENTRAL PLAINS

CITY           SKY/WX    TMP DP  RH WIND       PRES   REMARKS
TUCUMCARI      SUNNY     72  52  49 S15       29.96F
6HR MIN TEMP:  64; 6HR MAX TEMP:  73;

CANNON AFB     NOT AVBL
CLOVIS AIRPORT MOSUNNY   64  55  72 SE15      30.04F

$$
NMZ028-029-538-230100-
SOUTHEAST PLAINS

CITY           SKY/WX    TMP DP  RH WIND       PRES   REMARKS
ROSWELL        SUNNY     75  54  47 SE20      29.92F
6HR MIN TEMP:  61; 6HR MAX TEMP:  77;

ARTESIA        SUNNY     77  59  53 SE16      29.93F
CARLSBAD       SUNNY     75  59  57 SE12      29.92F
6HR MIN TEMP:  64; 6HR MAX TEMP:  78;

HOBBS          PTSUNNY   68  64  88 E15       30.01F


$$


USA.gov is the U.S. government's official web portal to all federal, state and local government web resources and services.